Flag Weather past 2 weeks in Gross-Gerau, Hesse, Germany

Now
41 °F

Partly sunny.


Feels Like: 33 °F
Forecast: 36 / 41 °F
Wind: 15 mph from East

Location: Frankfurt-M-Flughafen Airport

Current Time: Nov 28, 2014 at 12:31:48 PM

Latest Report: Nov 28, 2014 at 11:50 AM


Visibility: 6 mi

Pressure: 29.89 "Hg

Humidity: 81%

Dew point: 36 °F

Location of Gross-GerauLocation

Historic Weather in Gross-Gerau — Graph

°F

Gross-Gerau temperature yesterday

Maximum temperature yesterday: 43 °F (at 10:50 AM)
Minimum temperature yesterday: 39 °F (at 6:50 AM)
Average temperature yesterday: 42 °F

Past Weeks' High & Low Weather Summary

 TemperatureHumidityPressure
High54 °F (Nov 14, 12:20 PM)100% (Nov 15, 10:20 PM)30.33 "Hg (Nov 15, 10:20 PM)
Low32 °F (Nov 25, 2:50 AM)66% (Nov 21, 1:20 PM)29.50 "Hg (Nov 16, 5:50 AM)
Average44 °F88%29.97 "Hg
* Reported Nov 13 11:20 AM — Nov 28 11:20 AM, Gross-Gerau, Weather by CustomWeather, © 2014

Note: Actual official high and low records may vary slightly from our data, if they occured in-between our weather recording intervals... More about our weather records

Advertising

Gross-Gerau weather history for previous 24 hours

 ConditionsComfort  
Time TempWeatherWind HumidityBarometerVisibility
11:20 AM
Nov 28
41 °FPartly sunny.15 mph81%29.89 "Hg5 mi
10:50 AM41 °FPartly sunny.15 mph87%29.89 "Hg5 mi
10:20 AM41 °FPartly sunny.12 mph81%29.89 "Hg5 mi
9:50 AM41 °FPartly sunny.9 mph81%29.89 "Hg5 mi
9:20 AM41 °FPartly sunny.14 mph87%29.86 "Hg4 mi
8:50 AM41 °FPartly sunny.13 mph81%29.86 "Hg4 mi
8:20 AM41 °FPartly sunny.13 mph87%29.86 "Hg4 mi
7:50 AM41 °FPassing clouds.13 mph87%29.86 "Hg4 mi
7:20 AM41 °FPassing clouds.14 mph87%29.86 "Hg4 mi
6:50 AM39 °FPassing clouds.9 mph93%29.86 "Hg4 mi
6:20 AM37 °FPassing clouds.9 mph93%29.86 "Hg4 mi
5:50 AM39 °FPassing clouds.8 mph87%29.86 "Hg6 mi
5:20 AM37 °FPassing clouds.13 mph93%29.83 "Hg6 mi
4:50 AM39 °FPassing clouds.12 mph87%29.83 "Hg6 mi
4:20 AM39 °FPassing clouds.8 mph87%29.83 "Hg6 mi
3:50 AM37 °FClear.10 mph87%29.83 "Hg6 mi
3:20 AM37 °FClear.12 mph93%29.83 "Hg6 mi
2:50 AM39 °FClear.10 mph87%29.83 "Hg10 mi
2:20 AM39 °FClear.10 mph87%29.83 "Hg10 mi
1:50 AM37 °FClear.10 mph87%29.83 "Hg10 mi
1:20 AM37 °FClear.10 mph93%29.83 "Hg10 mi
12:50 AM39 °FClear.10 mph87%29.83 "Hg10 mi
12:20 AM37 °FClear.9 mph87%29.83 "Hg10 mi
11:50 PM
Nov 27
39 °FClear.9 mph87%29.83 "Hg10 mi
11:20 PM39 °FClear.8 mph87%29.83 "Hg10 mi
10:50 PM41 °FClear.8 mph81%29.83 "Hg10 mi
10:20 PM41 °FPassing clouds.8 mph87%29.83 "HgN/A
9:50 PM41 °FPassing clouds.13 mph87%29.83 "HgN/A
9:20 PM43 °FPassing clouds.10 mph81%29.83 "HgN/A
8:50 PM43 °FPartly cloudy.10 mph81%29.83 "HgN/A
8:20 PM43 °FPassing clouds.13 mph81%29.83 "HgN/A
7:50 PM43 °FPassing clouds.9 mph81%29.83 "HgN/A
7:20 PM43 °FPartly cloudy.10 mph81%29.83 "HgN/A
6:50 PM43 °FLight rain. Passing clouds.10 mph81%29.83 "HgN/A
6:20 PM43 °FLight rain. Partly cloudy.9 mph81%29.83 "HgN/A
5:50 PM43 °FLight rain. Partly cloudy.10 mph81%29.83 "HgN/A
5:20 PM43 °FLight rain. Passing clouds.10 mph81%29.80 "HgN/A
4:50 PM43 °FLight rain. Passing clouds.8 mph81%29.83 "HgN/A
4:20 PM43 °FLight rain. Partly sunny.10 mph81%29.80 "HgN/A
3:50 PM43 °FLight rain. Broken clouds.12 mph76%29.80 "HgN/A
3:20 PM43 °FBroken clouds.12 mph76%29.80 "HgN/A
2:50 PM43 °FBroken clouds.10 mph81%29.80 "HgN/A
2:20 PM43 °FBroken clouds.9 mph81%29.80 "HgN/A
1:50 PM43 °FBroken clouds.10 mph81%29.80 "HgN/A
1:20 PM43 °FBroken clouds.13 mph76%29.83 "HgN/A
12:50 PM43 °FPartly sunny.12 mph76%29.83 "HgN/A
12:20 PM43 °FPartly sunny.10 mph81%29.83 "HgN/A
Weather by CustomWeather, © 2014

See weather overviewHow to use our weather pages